Flag for Germany Weather past 2 weeks in Garmisch-Partenkirchen, Bavaria, Germany

61 °F

Sprinkles. Partly cloudy.

Feels Like: 61 °F
Forecast: 53 / 58 °F
Wind: 14 mph from West

Location: Innsbruck-Flughafen

Current Time: Oct 6, 2015 at 9:25:57 PM

Latest Report: Oct 6, 2015 at 8:50 PM

Visibility: N/A

Pressure: 29.83 "Hg (27.46 "Hg at 699m altitude)

Humidity: 72%

Dew point: 52 °F

Location of Garmisch-PartenkirchenLocation

Historic Weather in Garmisch-Partenkirchen — Graph


Garmisch-Partenkirchen temperature yesterday

Maximum temperature yesterday: 66 °F (at 3:20 PM)
Minimum temperature yesterday: 41 °F (at 12:50 AM)
Average temperature yesterday: 51 °F

Past Weeks' High & Low Weather Summary

High73 °F (Oct 2, 2:50 PM)100% (Sep 22, 5:20 AM)30.45 "Hg (Sep 22, 5:20 AM)
Low36 °F (Sep 29, 7:20 AM)30% (Oct 1, 2:20 PM)29.68 "Hg (Sep 22, 4:50 PM)
Average53 °F76%30.14 "Hg
* Reported Sep 21 7:20 PM — Oct 6 7:50 PM, Garmisch-Partenkirchen, Weather by CustomWeather, © 2015

Note: Actual official high and low records may vary slightly from our data, if they occured in-between our weather recording intervals... More about our weather records


Garmisch-Partenkirchen weather history for previous 24 hours

Time TempWeatherWind HumidityBarometerVisibility
7:50 PM
Tue, Oct 6
61 °FPartly cloudy.2 mph83%29.77 "HgN/A
7:20 PM63 °FPartly sunny.3 mph77%29.77 "HgN/A
6:50 PM64 °FPartly sunny.2 mph68%29.74 "HgN/A
6:20 PM64 °FPartly sunny.5 mph68%29.74 "HgN/A
5:50 PM64 °FPartly sunny.9 mph64%29.74 "HgN/A
5:20 PM66 °FPartly sunny.3 mph64%29.74 "HgN/A
4:50 PM66 °FBroken clouds.6 mph60%29.74 "HgN/A
4:20 PM66 °FBroken clouds.5 mph64%29.74 "HgN/A
3:50 PM68 °FBroken clouds.1 mph60%29.74 "HgN/A
3:20 PM68 °FBroken clouds.1 mph56%29.74 "HgN/A
2:50 PM66 °FBroken clouds.2 mph60%29.77 "HgN/A
2:20 PM64 °FBroken clouds.2 mph64%29.77 "HgN/A
1:50 PM63 °FBroken clouds.6 mph68%29.77 "HgN/A
1:20 PM64 °FBroken clouds.2 mph64%29.80 "HgN/A
12:50 PM63 °FBroken clouds.2 mph68%29.80 "HgN/A
12:20 PM61 °FBroken clouds.1 mph72%29.83 "HgN/A
11:50 AM59 °FBroken clouds.1 mph77%29.83 "HgN/A
11:20 AM57 °FBroken clouds.1 mph82%29.86 "HgN/A
10:50 AM57 °FBroken clouds.2 mph82%29.86 "HgN/A
10:20 AM55 °FPartly sunny.1 mph82%29.86 "HgN/A
9:50 AM55 °FBroken clouds.1 mph88%29.86 "HgN/A
9:20 AM54 °FBroken clouds.1 mph94%29.89 "HgN/A
8:50 AM54 °FBroken clouds.1 mph94%29.89 "HgN/A
8:20 AM52 °FBroken clouds.1 mph94%29.89 "HgN/A
7:50 AM52 °FPartly cloudy.2 mph94%29.89 "HgN/A
7:20 AM52 °FPartly cloudy.5 mph94%29.89 "HgN/A
6:50 AM52 °FSprinkles. Partly cloudy.2 mph94%29.89 "HgN/A
6:20 AM52 °FSprinkles. Partly cloudy.3 mph94%29.89 "HgN/A
5:50 AM52 °FSprinkles. Partly cloudy.2 mph94%29.89 "HgN/A
5:20 AM52 °FOvercast.5 mph94%29.89 "HgN/A
4:50 AM52 °FLight rain. Passing clouds.7 mph94%29.89 "HgN/A
4:20 AM52 °FPassing clouds.9 mph94%29.89 "HgN/A
3:50 AM52 °FPartly cloudy.7 mph94%29.89 "HgN/A
3:20 AM52 °FLight rain. Passing clouds.8 mph94%29.89 "HgN/A
2:50 AM52 °FPartly cloudy.6 mph88%29.92 "HgN/A
2:20 AM52 °FPassing clouds.2 mph88%29.92 "HgN/A
1:50 AM54 °FPassing clouds.1 mph82%29.92 "HgN/A
1:20 AM54 °FSprinkles. Passing clouds.2 mph82%29.92 "HgN/A
12:50 AM54 °FSprinkles. Overcast.5 mph82%29.95 "HgN/A
12:20 AM52 °FSprinkles. Passing clouds.2 mph88%29.95 "HgN/A
11:50 PM
Mon, Oct 5
54 °FPassing clouds.2 mph82%29.95 "HgN/A
10:50 PM54 °FPartly cloudy.3 mph82%29.95 "HgN/A
10:20 PM54 °FPassing clouds.3 mph82%29.95 "HgN/A
9:50 PM52 °FPartly cloudy.6 mph88%29.95 "HgN/A
9:20 PM52 °FPartly cloudy.2 mph82%29.95 "HgN/A
Weather by CustomWeather, © 2015

See weather overviewHow to use our weather pages